User: anonymous   Login
Location: Hickory_Viewmont
(35.7830°N, 81.3170°W)
Time: 00:44:09
(UTC-04:00)
Language:

Okean-O - Orbit

View from above orbital plane
View from above orbital plane
View from above satellite
View from above satellite

Ground track
Ground track

The orbit data is extracted from the following two-line orbital elements,

1 25860U 99039A   18111.55423759  .00000045  00000-0  14153-4 0  9990
2 25860  98.2147 106.1669 0001002 110.1017 250.0300 14.76542242  9339
Epoch (UTC): 21 April 2018 13:18:06
Eccentricity: 0.0001002
inclination: 98.2147°
perigee height: 639 km
apogee height: 641 km
right ascension of ascending node: 106.1669°
argument of perigee: 110.1017°
revolutions per day: 14.76542242
mean anomaly at epoch: 250.0300°
orbit number at epoch: 933

The dashed part of the orbit path shows where the satellite is in the earth's shadow,  

DLR